Wind_Speed
23 23 22 22 20 19 19 18 16 14 13 12 12 12 11 12 12 12 11 12 14 15 16 15 17 16 16 16 16 18 17 16 7 5 10 11 13 12 9 6 3 7 7
19 18 17 16 16 16 15 15 14 13 11 10 8 8 8 9 9 10 10 11 11 13 13 12 14 13 14 14 14 14 13 13 8 8 11 12 11 12 9 7 6 8 7
16 17 16 15 14 12 11 9 9 10 9 8 7 7 8 9 9 10 11 12 11 12 13 13 15 15 14 14 15 14 11 10 9 9 8 12 8 14 13 10 9 8 7
16 15 14 12 11 9 8 8 8 7 7 5 4 5 6 7 8 8 10 11 13 11 12 14 13 13 13 12 12 12 11 11 10 9 9 11 11 15 15 15 13 10 8
16 15 13 13 12 11 10 9 8 7 5 3 3 4 5 6 7 8 9 10 10 12 12 12 13 12 12 12 12 12 13 12 11 14 10 8 10 13 18 15 13 12 10
14 15 16 15 14 12 11 10 8 6 4 3 3 4 5 7 8 9 10 10 11 13 12 13 12 9 10 9 10 11 12 14 15 17 14 11 13 17 19 17 15 10 5
16 16 17 15 14 13 12 11 9 7 5 4 5 6 8 8 8 10 8 10 12 12 12 12 10 9 7 7 8 8 10 11 12 16 18 17 16 17 20 19 18 15 7
17 17 16 15 14 14 13 11 8 6 5 6 8 8 9 9 9 7 9 10 12 12 11 11 10 10 10 10 10 9 8 9 10 12 11 10 12 13 15 16 17 13 9
17 17 16 16 15 14 12 10 8 7 8 10 8 7 8 9 8 8 10 11 12 11 10 10 10 9 8 9 9 10 8 6 6 7 8 10 11 12 14 13 16 17 5
17 16 15 15 15 13 12 11 10 9 9 9 9 7 8 9 8 9 10 11 10 10 10 9 9 9 9 8 9 9 9 9 10 11 11 12 11 11 12 11 14 19 7
14 14 14 14 14 13 12 11 10 10 9 9 8 8 10 10 10 10 11 11 10 10 10 10 9 9 10 9 9 11 9 10 9 11 12 11 11 10 10 10 12 14 11
14 15 16 16 15 15 14 12 12 11 10 10 11 11 12 13 12 12 12 11 10 11 12 11 10 9 9 10 9 9 8 9 12 12 12 12 12 11 10 9 8 9 9
14 15 15 15 14 14 14 13 11 11 11 12 12 14 16 15 15 14 12 12 10 12 12 11 10 11 9 9 9 8 10 15 14 14 15 15 13 11 11 9 7 6 6
12 12 13 14 14 14 13 13 12 13 13 14 14 16 19 17 16 15 16 13 13 12 11 10 11 11 13 11 9 10 12 13 15 15 15 13 12 14 13 9 7 6 5
9 10 12 13 14 14 14 13 14 14 14 16 17 17 19 19 19 19 18 18 16 17 14 12 13 14 15 14 13 14 14 14 15 14 16 15 15 15 14 11 9 10 7
7 8 11 12 13 14 14 14 14 14 14 15 15 17 17 16 15 13 16 15 16 15 15 16 17 18 18 19 19 18 17 17 17 17 16 17 18 17 16 15 14 13 12
8 9 10 12 15 16 15 15 16 12 12 15 17 17 17 18 15 14 15 14 16 15 20 20 20 20 22 22 21 21 20 21 19 20 19 19 18 17 18 19 18 16 15
7 9 11 12 14 16 17 16 15 15 15 15 13 16 18 16 17 17 16 13 18 20 24 21 23 22 22 22 22 22 22 21 21 22 23 23 21 21 23 22 21 22 21
7 9 9 11 13 15 15 15 16 15 16 18 17 15 14 15 17 18 18 19 21 23 24 24 27 26 25 24 23 22 21 22 22 23 25 25 24 25 27 25 23 23 22
7 7 9 9 11 12 13 15 17 16 17 18 17 17 15 12 15 19 24 23 25 28 25 29 30 29 29 28 25 24 24 23 24 25 27 28 27 28 28 27 27 26 25
8 9 7 7 8 10 11 14 14 15 17 18 19 17 14 15 17 20 23 26 29 31 28 31 32 31 30 29 28 27 27 28 29 29 30 29 29 30 29 28 28 28 27
8 9 9 8 7 8 10 11 12 14 15 16 18 17 14 15 20 21 22 25 28 29 32 32 33 33 32 31 30 29 30 30 31 31 31 31 30 29 29 28 28 28 26
8 9 9 9 9 8 8 8 10 11 14 15 16 16 16 16 17 19 22 23 23 25 27 30 31 32 32 32 31 30 30 32 32 31 32 32 31 31 31 31 30 27 26
8 9 9 9 9 10 9 10 9 10 11 13 14 15 16 17 18 19 20 20 21 22 23 25 27 29 29 31 32 32 32 31 31 31 29 30 31 31 30 31 30 30 28
8 9 9 9 10 10 10 10 12 13 13 13 13 13 14 15 16 18 19 19 20 21 22 23 24 26 27 27 30 32 32 31 31 31 31 32 32 32 32 32 30 29 27
9 10 10 10 10 9 9 11 11 12 13 14 14 16 17 17 18 18 19 20 21 22 22 22 23 23 23 24 25 26 27 30 31 31 31 32 33 34 33 32 32 30 29
Wind_Direction
187 189 194 195 201 213 222 219 216 219 222 233 244 246 249 253 255 262 272 274 273 273 267 265 262 256 253 248 240 233 232 234 180 169 192 194 191 193 186 179 230 211 215
187 190 191 193 194 196 199 199 199 199 200 206 218 229 234 254 270 276 272 271 279 281 279 270 264 258 255 240 236 229 227 220 206 168 182 181 194 195 192 184 198 216 216
175 177 176 178 178 179 180 183 190 191 181 199 218 238 252 259 263 274 282 280 275 280 277 271 269 256 245 236 230 224 220 216 213 183 168 185 190 190 185 184 193 205 201
174 171 172 175 179 181 185 191 199 201 189 190 212 242 259 272 285 283 279 278 269 261 267 267 259 253 248 238 231 231 226 226 211 195 182 180 189 194 196 185 181 199 197
174 176 179 180 182 184 187 193 199 196 188 192 224 254 272 282 288 285 279 271 262 263 256 258 261 253 251 241 235 232 237 229 204 197 183 174 179 176 193 190 190 193 200
181 182 181 178 178 184 190 193 196 195 194 202 228 260 281 294 300 298 283 273 262 259 265 263 257 254 250 248 244 237 234 224 207 196 195 196 198 198 194 190 183 178 206
183 181 181 180 184 189 192 194 196 197 204 225 252 271 281 289 306 316 299 279 270 269 267 263 262 246 228 245 243 231 213 214 219 211 206 214 214 212 198 187 189 192 188
185 188 190 190 191 192 193 197 202 213 231 254 268 270 279 287 287 287 299 287 273 263 255 252 249 249 247 232 230 213 205 201 200 207 211 216 207 200 208 202 195 189 181
194 196 198 198 199 199 202 206 214 225 245 256 263 268 279 285 286 268 291 289 268 255 245 239 239 231 218 213 216 200 185 176 172 188 188 188 191 186 200 196 183 172 169
204 207 207 207 211 212 214 215 224 244 258 261 264 267 277 281 279 272 287 287 252 243 236 232 231 229 204 213 202 207 178 173 164 154 149 158 169 177 190 195 201 186 159
211 213 215 217 220 221 219 224 233 252 257 267 270 273 272 273 271 261 267 269 256 244 239 237 226 222 220 216 228 214 211 197 180 177 170 170 172 175 181 180 188 204 194
213 215 215 217 217 220 224 225 232 255 248 258 267 269 268 266 263 261 251 249 261 251 244 238 232 221 219 211 223 216 206 204 193 185 180 175 183 180 179 173 181 194 205
211 213 214 215 220 223 221 225 243 250 250 257 260 268 271 264 259 254 253 243 246 254 255 251 243 224 227 225 224 217 206 209 200 197 197 196 197 186 181 179 185 193 202
212 215 218 219 220 222 225 237 253 250 251 254 259 267 273 273 260 251 243 242 240 242 251 249 240 230 230 237 230 211 213 214 215 215 213 207 197 196 197 198 198 199 202
230 231 228 226 226 229 236 247 258 263 257 256 260 266 270 273 270 259 250 243 235 240 247 238 223 221 226 229 230 224 220 218 218 216 215 210 204 202 208 215 221 207 215
251 242 240 239 239 241 246 256 260 268 268 262 264 264 270 270 272 259 243 241 238 240 229 232 229 227 232 235 233 232 229 227 225 221 220 221 216 214 217 220 217 215 218
275 271 264 253 247 242 245 254 268 272 272 267 266 266 258 266 275 252 244 241 235 226 228 235 235 237 238 238 240 241 237 234 232 229 229 228 228 226 223 222 220 219 226
295 279 267 258 252 250 250 257 262 268 280 289 282 266 262 261 256 257 245 237 233 230 233 231 243 248 249 248 248 246 246 245 241 236 234 234 235 232 227 228 226 227 230
303 291 280 268 259 256 255 257 259 262 269 281 290 284 269 257 254 246 242 229 235 235 233 240 250 255 258 258 258 257 254 250 245 240 238 238 238 235 234 237 239 235 235
322 299 286 277 268 259 255 256 259 260 267 274 280 284 286 271 251 244 231 237 235 245 240 247 252 256 260 263 263 260 255 250 246 243 241 241 240 238 237 239 240 238 230
339 333 317 291 279 274 270 263 264 269 270 273 280 287 284 268 262 248 242 239 242 245 245 251 257 261 263 264 264 261 256 252 248 245 243 241 240 239 240 241 245 243 243
336 338 339 333 310 292 286 281 280 278 279 280 287 289 286 263 260 262 260 254 254 255 254 257 262 264 265 264 263 260 256 253 250 246 245 244 243 241 242 241 239 241 240
339 332 336 341 342 332 315 303 296 293 291 292 293 294 292 284 277 273 271 273 271 268 265 261 261 260 263 264 263 260 257 256 255 252 248 245 245 243 240 237 233 230 229
341 341 341 337 332 334 336 331 323 315 309 306 299 299 299 297 294 292 289 285 282 280 277 272 269 268 266 264 264 262 260 260 259 257 254 249 247 244 238 236 233 232 233
337 337 338 336 332 329 320 318 316 312 315 316 309 299 296 295 293 293 295 297 295 291 287 284 279 276 274 270 266 265 265 261 260 260 258 250 246 243 240 235 232 229 231
333 329 329 328 329 324 320 314 310 311 311 311 309 304 304 308 305 307 303 298 298 297 293 291 289 285 281 278 274 270 267 266 262 256 253 251 247 240 235 230 232 227 231
Height
790 793 797 800 804 806 809 810 812 814 816 819 819 820 820 822 822 822 821 822 821 820 820 819 818 820 819 820 819 821 823 826 826 831 834 836 838 841 842 844 845 847 848
790 793 797 800 803 806 808 810 811 811 812 815 818 819 818 820 820 821 819 820 818 818 818 817 816 817 816 816 817 819 819 821 824 826 830 834 835 838 841 842 844 846 848
789 793 796 800 802 805 808 810 812 813 811 814 816 818 819 818 818 818 818 818 816 815 816 816 815 815 814 814 816 817 818 819 820 822 826 830 834 835 838 840 842 845 846
791 794 797 800 802 805 808 811 813 814 812 812 813 815 817 816 816 815 815 815 816 812 813 816 814 813 813 812 813 815 817 818 818 820 825 827 830 834 836 837 839 844 846
790 794 797 800 803 805 808 810 813 813 812 811 812 814 815 815 815 814 814 814 812 814 811 812 814 811 812 812 811 811 815 816 816 820 822 824 826 831 833 834 838 842 844
790 794 797 800 802 806 808 811 812 812 811 811 812 814 815 814 814 813 811 812 811 811 809 811 810 810 811 811 811 810 811 813 814 817 821 821 822 825 829 831 835 840 843
792 795 798 799 802 806 808 810 810 811 810 811 812 813 814 813 812 812 811 810 810 809 808 810 809 809 810 810 810 810 811 811 813 814 816 819 822 826 826 827 831 835 838
792 795 798 800 803 805 807 809 809 809 810 811 812 813 813 812 812 811 810 810 809 808 808 808 809 809 809 809 811 811 811 811 811 812 814 816 819 820 828 826 829 832 838
792 794 797 800 802 804 805 806 807 808 810 810 811 811 812 812 812 811 809 808 807 806 806 806 806 807 807 809 811 810 810 812 812 812 813 815 817 820 825 825 828 830 836
790 794 796 799 801 802 804 805 806 808 808 809 809 809 810 810 810 809 808 807 805 805 804 804 805 807 808 808 808 811 810 813 811 812 814 815 817 819 822 824 826 828 832
790 793 795 797 799 801 802 803 804 806 807 807 807 807 807 808 808 808 806 806 805 803 803 803 803 805 807 809 808 809 810 811 812 813 814 817 817 820 821 822 825 828 829
789 791 793 795 797 799 800 801 802 804 804 805 805 804 805 805 805 805 805 804 803 802 802 802 803 805 806 807 808 807 808 810 811 813 814 815 819 819 821 822 825 827 827
788 790 792 793 795 796 797 799 800 802 801 801 801 802 802 802 802 803 802 803 802 802 802 802 802 803 804 805 805 806 807 808 809 811 813 815 817 819 821 822 824 825 826
787 789 791 792 793 795 796 797 797 798 799 799 798 799 799 799 799 799 799 800 800 800 800 800 800 801 803 803 804 805 805 806 808 810 813 815 816 817 819 821 822 824 826
787 787 789 790 791 793 793 794 794 794 795 795 793 794 795 794 794 795 796 796 797 797 798 798 798 799 800 801 802 803 803 805 806 808 811 812 813 815 817 819 821 822 823
785 785 787 788 789 790 790 791 791 790 791 791 790 790 790 790 790 791 791 792 793 794 795 794 795 795 797 797 798 800 801 802 804 806 808 809 810 812 815 817 819 820 821
783 784 784 785 786 786 787 787 787 787 786 786 785 786 786 786 786 787 788 789 790 791 790 790 791 792 792 793 795 796 796 798 801 802 804 805 807 809 812 814 815 817 819
781 782 782 782 782 783 783 783 784 783 782 781 782 782 781 781 782 783 784 785 786 786 785 785 786 787 788 789 790 791 792 794 795 797 799 801 802 805 807 809 810 812 815
780 779 779 778 778 779 779 779 779 779 778 777 777 777 777 777 777 778 779 780 780 780 780 780 781 782 783 784 784 785 786 788 789 791 793 795 797 800 801 803 805 807 810
777 776 776 774 774 774 773 774 774 774 774 773 773 772 772 772 772 772 773 773 774 774 773 775 775 776 777 778 778 779 780 782 783 784 786 788 791 793 794 796 798 801 803
776 774 772 771 770 770 770 770 770 769 769 768 768 768 767 767 766 767 767 767 767 768 767 768 769 769 770 771 772 772 773 774 775 777 779 781 783 784 786 788 791 794 796
775 773 771 769 767 767 766 766 765 765 765 764 763 762 763 762 761 761 761 760 760 761 761 761 761 761 762 763 764 765 765 766 767 769 771 773 775 776 778 781 783 786 788
773 772 770 768 766 765 763 762 762 761 760 759 759 758 757 756 755 754 754 753 753 753 753 754 754 754 754 754 755 756 757 757 759 761 762 764 766 768 770 772 774 777 778
772 770 769 767 766 764 762 761 760 758 757 756 755 754 752 751 750 749 748 747 747 746 746 746 745 745 746 746 746 747 748 749 751 751 754 755 756 759 761 763 766 767 770
770 769 768 766 765 763 762 760 758 757 755 754 752 750 748 747 746 744 743 742 741 740 739 738 738 737 737 737 737 737 738 740 742 743 745 746 747 749 751 753 756 759 761
768 767 765 764 763 762 761 759 758 756 754 752 750 748 746 743 741 740 738 737 735 734 733 732 731 730 729 729 728 729 729 729 731 733 735 736 737 739 741 743 746 749 752